This is the latest recevied weather packets stored in our database for station/object SV1TQE-1. If no packets are shown the sender has not sent any weather packets the latest 10 day(s).
| Time | Temp. | Humidity | Pressure | Rain* | Wind** | Luminosity | Snow |
|---|---|---|---|---|---|---|---|
| 1787444453 | 28.33° C | 81% | 1016 hPa | - | - | - | - |
| 1787443553 | 28.33° C | 87% | 1016 hPa | - | - | - | - |
| 1787442654 | 28.89° C | 84% | 1015.8 hPa | - | - | - | - |
| 1787441756 | 28.89° C | 85% | 1015.9 hPa | - | - | - | - |
| 1787440847 | 28.33° C | 81% | 1014.6 hPa | - | - | - | - |
| 1787439941 | 28.89° C | 80% | 1015.9 hPa | - | - | - | - |
| 1787439041 | 28.89° C | 77% | 1016 hPa | - | - | - | - |
| 1787437241 | 29.44° C | 77% | 1016.2 hPa | - | - | - | - |
| 1787436341 | 29.44° C | 76% | 1016.3 hPa | - | - | - | - |
| 1787435440 | 29.44° C | 78% | 1016.3 hPa | - | - | - | - |
| 1787435364 | 29.44° C | 77% | 1016.3 hPa | - | - | - | - |
| 1787435320 | 29.44° C | 77% | 1016.3 hPa | - | - | - | - |
| 1787434364 | 29.44° C | 81% | 1016.3 hPa | - | - | - | - |
| 1787433464 | 29.44° C | 83% | 1016.1 hPa | - | - | - | - |
| 1787432564 | 29.44° C | 81% | 1016.2 hPa | - | - | - | - |
| 1787431664 | 29.44° C | 85% | 1016.1 hPa | - | - | - | - |
| 1787430763 | 29.44° C | 86% | 1016.1 hPa | - | - | - | - |
| 1787429863 | 30° C | 76% | 1016.2 hPa | - | - | - | - |
| 1787428966 | 30° C | 74% | 1016.1 hPa | - | - | - | - |
| 1787428056 | 30° C | 73% | 1016 hPa | - | - | - | - |
| 1787427156 | 30° C | 75% | 1016.2 hPa | - | - | - | - |
| 1787426255 | 30° C | 78% | 1016.2 hPa | - | - | - | - |
| 1787425355 | 30° C | 82% | 1016.2 hPa | - | - | - | - |
| 1787424455 | 30° C | 84% | 1016 hPa | - | - | - | - |
| 1787423555 | 30° C | 86% | 1016 hPa | - | - | - | - |
* Rain since midnight (hover to see other rain measurements)
** Current wind speed in m/s (hover to see current wind gust speed)